When you browse on this site, cookies collect data to enhance your experience and personalize the content and advertising you see.
Visit our Privacy Policy to learn more. By continuing to use the site, you agree to this use of cookies and data.
  • In Hungary
  • List of Countries
  • For 7 days
  • Water Temperature
  • Satellite Maps
  • Weather Map
  • News
  • Weather Widgets
  • user-avatar
    Login

    Hourly Weather Citta di Castello

    Today, 16 January, Wednesday

    Time Temperature Precipitation Wind Pressure Humidity
    00:00 +2°C° 0 mm 2 mps 734 mmHg 63%
    01:00 +3°C° 0 mm 1 mps 733 mmHg 68%
    02:00 +2°C° 0 mm 2 mps 733 mmHg 67%
    03:00 +2°C° 0 mm 2 mps 733 mmHg 66%
    04:00 +2°C° 0 mm 2 mps 733 mmHg 65%
    05:00 +1°C° 0 mm 2 mps 733 mmHg 64%
    06:00 +1°C° 0 mm 2 mps 733 mmHg 62%
    07:00 +2°C° 0 mm 1 mps 733 mmHg 59%
    08:00 +2°C° 0 mm 2 mps 733 mmHg 59%
    09:00 +4°C° 0 mm 2 mps 734 mmHg 58%
    10:00 +5°C° 0 mm 2 mps 734 mmHg 57%
    11:00 +7°C° 0 mm 3 mps 734 mmHg 60%
    12:00 +8°C° 0 mm 3 mps 734 mmHg 62%
    13:00 +8°C° 0 mm 4 mps 734 mmHg 65%
    14:00 +8°C° 0 mm 4 mps 734 mmHg 70%
    15:00 +9°C° 0 mm 3 mps 733 mmHg 76%
    16:00 +8°C° 0 mm 3 mps 733 mmHg 82%
    17:00 +8°C° 0 mm 3 mps 733 mmHg 86%
    18:00 +7°C° 0 mm 3 mps 733 mmHg 89%
    19:00 +5°C° 0 mm 3 mps 732 mmHg 93%
    20:00 +5°C° 0 mm 3 mps 732 mmHg 93%
    21:00 +5°C° 0 mm 3 mps 732 mmHg 93%
    22:00 +4°C° 0 mm 3 mps 732 mmHg 93%
    23:00 +4°C° 0 mm 3 mps 732 mmHg 93%

    Tomorrow, 17 January, Thursday

    Time Temperature Precipitation Wind Pressure Humidity
    00:00 +4°C° 0 mm 3 mps 732 mmHg 93%
    01:00 +4°C° 0 mm 3 mps 732 mmHg 92%
    02:00 +4°C° 0 mm 3 mps 732 mmHg 91%
    03:00 +4°C° 0 mm 3 mps 731 mmHg 90%
    04:00 +4°C° 0 mm 3 mps 731 mmHg 89%
    05:00 +4°C° 0.1 mm 3 mps 731 mmHg 89%
    06:00 +4°C° 0.1 mm 3 mps 731 mmHg 89%
    07:00 +4°C° 0.1 mm 3 mps 730 mmHg 89%
    08:00 +5°C° 0.1 mm 2 mps 730 mmHg 89%
    09:00 +6°C° 0.1 mm 2 mps 730 mmHg 89%
    10:00 +6°C° 0.1 mm 2 mps 730 mmHg 89%
    11:00 +6°C° 0.2 mm 2 mps 730 mmHg 90%
    12:00 +7°C° 0.2 mm 3 mps 730 mmHg 90%
    13:00 +7°C° 0.2 mm 3 mps 729 mmHg 90%
    14:00 +7°C° 0.2 mm 3 mps 729 mmHg 91%
    15:00 +8°C° 0.2 mm 3 mps 729 mmHg 92%
    16:00 +8°C° 0.2 mm 3 mps 728 mmHg 92%
    17:00 +7°C° 0.1 mm 3 mps 728 mmHg 93%
    18:00 +7°C° 0.1 mm 3 mps 728 mmHg 95%
    19:00 +7°C° 0.1 mm 3 mps 728 mmHg 96%
    20:00 +7°C° 0.1 mm 3 mps 728 mmHg 96%
    21:00 +7°C° 0.1 mm 3 mps 728 mmHg 96%
    22:00 +7°C° 0.1 mm 3 mps 728 mmHg 96%
    23:00 +5°C° 0 mm 3 mps 728 mmHg 97%

    Day after tomorrow, 18 January, Friday

    Time Temperature Precipitation Wind Pressure Humidity
    00:00 +5°C° 0 mm 3 mps 728 mmHg 97%
    01:00 +5°C° 0 mm 3 mps 728 mmHg 97%
    02:00 +6°C° 0 mm 2 mps 728 mmHg 97%
    03:00 +6°C° 0 mm 2 mps 728 mmHg 97%
    04:00 +6°C° 0 mm 2 mps 728 mmHg 97%
    05:00 +6°C° 0 mm 2 mps 728 mmHg 97%
    06:00 +6°C° 0 mm 2 mps 728 mmHg 97%
    07:00 +6°C° 0 mm 2 mps 728 mmHg 97%
    08:00 +7°C° 0 mm 2 mps 728 mmHg 94%
    09:00 +7°C° 0 mm 2 mps 729 mmHg 91%
    10:00 +8°C° 0 mm 2 mps 729 mmHg 88%
    11:00 +8°C° 0 mm 2 mps 729 mmHg 85%
    12:00 +9°C° 0 mm 2 mps 729 mmHg 82%
    13:00 +10°C° 0 mm 2 mps 729 mmHg 78%
    14:00 +9°C° 0.1 mm 2 mps 729 mmHg 80%
    15:00 +10°C° 0.1 mm 1 mps 729 mmHg 81%
    16:00 +10°C° 0.1 mm 1 mps 729 mmHg 83%
    17:00 +10°C° 0.3 mm 1 mps 729 mmHg 86%
    18:00 +9°C° 0.3 mm 1 mps 729 mmHg 89%
    19:00 +8°C° 0.3 mm 1 mps 730 mmHg 92%
    20:00 +8°C° 0.5 mm 1 mps 730 mmHg 93%
    21:00 +8°C° 0.5 mm 1 mps 730 mmHg 95%
    22:00 +8°C° 0.5 mm 1 mps 730 mmHg 96%
    23:00 +8°C° 0.3 mm 1 mps 730 mmHg 97%

    19 January, Saturday

    Time Temperature Precipitation Wind Pressure Humidity
    00:00 +8°C° 0.3 mm 1 mps 730 mmHg 97%
    01:00 +8°C° 0.3 mm 1 mps 730 mmHg 97%
    02:00 +8°C° 0.7 mm 1 mps 729 mmHg 97%
    03:00 +8°C° 0.7 mm 1 mps 729 mmHg 97%
    04:00 +8°C° 0.7 mm 1 mps 729 mmHg 96%
    05:00 +7°C° 0.2 mm 1 mps 729 mmHg 96%
    06:00 +7°C° 0.2 mm 1 mps 729 mmHg 95%
    07:00 +7°C° 0.2 mm 1 mps 729 mmHg 95%
    08:00 +7°C° 0.1 mm 2 mps 729 mmHg 92%
    09:00 +7°C° 0.1 mm 2 mps 729 mmHg 89%
    10:00 +8°C° 0.1 mm 2 mps 729 mmHg 86%
    11:00 +8°C° 0.1 mm 3 mps 729 mmHg 84%
    12:00 +8°C° 0.1 mm 3 mps 729 mmHg 82%
    13:00 +8°C° 0.1 mm 3 mps 728 mmHg 79%
    14:00 +8°C° 0.2 mm 2 mps 728 mmHg 79%
    15:00 +8°C° 0.2 mm 2 mps 728 mmHg 79%
    16:00 +8°C° 0.2 mm 2 mps 728 mmHg 79%
    17:00 +8°C° 0.1 mm 1 mps 728 mmHg 82%
    18:00 +7°C° 0.1 mm 1 mps 728 mmHg 86%
    19:00 +6°C° 0.1 mm 1 mps 728 mmHg 90%
    20:00 +6°C° 0 mm 1 mps 728 mmHg 90%
    21:00 +6°C° 0 mm 1 mps 728 mmHg 91%
    22:00 +5°C° 0 mm 1 mps 728 mmHg 91%
    23:00 +5°C° 0 mm 1 mps 728 mmHg 92%

    20 January, Sunday

    Time Temperature Precipitation Wind Pressure Humidity
    00:00 +5°C° 0 mm 1 mps 728 mmHg 92%
    01:00 +5°C° 0 mm 1 mps 728 mmHg 93%
    02:00 +5°C° 0.1 mm 1 mps 728 mmHg 94%
    03:00 +5°C° 0.1 mm 1 mps 727 mmHg 94%
    04:00 +5°C° 0.1 mm 1 mps 727 mmHg 94%
    05:00 +5°C° 0 mm 1 mps 727 mmHg 95%
    06:00 +4°C° 0 mm 1 mps 727 mmHg 96%
    07:00 +4°C° 0 mm 1 mps 728 mmHg 96%
    08:00 +5°C° 0 mm 1 mps 728 mmHg 92%
    09:00 +6°C° 0 mm 1 mps 728 mmHg 89%
    10:00 +7°C° 0 mm 1 mps 728 mmHg 85%
    11:00 +7°C° 0 mm 2 mps 728 mmHg 81%
    12:00 +8°C° 0 mm 2 mps 728 mmHg 76%
    13:00 +9°C° 0 mm 3 mps 728 mmHg 72%
    14:00 +8°C° 0 mm 2 mps 728 mmHg 74%
    15:00 +8°C° 0 mm 2 mps 728 mmHg 76%
    16:00 +9°C° 0 mm 1 mps 728 mmHg 77%
    17:00 +8°C° 0.6 mm 1 mps 728 mmHg 82%
    18:00 +8°C° 0.6 mm 1 mps 728 mmHg 87%
    19:00 +7°C° 0.6 mm 1 mps 728 mmHg 92%
    20:00 +7°C° 0.6 mm 1 mps 728 mmHg 93%
    21:00 +7°C° 0.6 mm 1 mps 728 mmHg 93%
    22:00 +7°C° 0.6 mm 1 mps 728 mmHg 93%
    23:00 +7°C° 0.1 mm 1 mps 728 mmHg 94%

    21 January, Monday

    Time Temperature Precipitation Wind Pressure Humidity
    00:00 +6°C° 0.1 mm 1 mps 728 mmHg 94%
    01:00 +6°C° 0.1 mm 1 mps 728 mmHg 94%
    02:00 +6°C° 0 mm 1 mps 728 mmHg 94%
    03:00 +6°C° 0 mm 1 mps 727 mmHg 93%
    04:00 +6°C° 0 mm 1 mps 727 mmHg 92%
    05:00 +6°C° 0.2 mm 1 mps 727 mmHg 91%
    06:00 +6°C° 0.2 mm 1 mps 727 mmHg 90%
    07:00 +6°C° 0.2 mm 1 mps 727 mmHg 89%
    08:00 +7°C° 0.4 mm 1 mps 727 mmHg 88%
    09:00 +7°C° 0.4 mm 1 mps 727 mmHg 87%
    10:00 +7°C° 0.4 mm 1 mps 727 mmHg 86%
    11:00 +8°C° 0.1 mm 1 mps 727 mmHg 81%
    12:00 +9°C° 0.1 mm 2 mps 727 mmHg 76%
    13:00 +10°C° 0.1 mm 2 mps 727 mmHg 71%
    14:00 +10°C° 0 mm 2 mps 727 mmHg 72%
    15:00 +9°C° 0 mm 2 mps 727 mmHg 74%
    16:00 +9°C° 0 mm 2 mps 726 mmHg 75%
    17:00 +8°C° 0 mm 2 mps 726 mmHg 80%
    18:00 +7°C° 0 mm 2 mps 726 mmHg 85%
    19:00 +6°C° 0 mm 2 mps 726 mmHg 90%
    20:00 +5°C° 0 mm 2 mps 726 mmHg 91%
    21:00 +5°C° 0 mm 2 mps 726 mmHg 92%
    22:00 +5°C° 0 mm 2 mps 726 mmHg 93%
    23:00 +5°C° 0.1 mm 2 mps 726 mmHg 94%
    Show more